Printer-friendly version

IAU Minor Planet Center

Minor Planet Center

MPEC 2005-F06 : 2005 ED224

The following Minor Planet Electronic Circular may be linked-to from your own Web pages, but must not otherwise be redistributed electronically.


Read MPEC 2005-F05 Read MPEC 2005-F07


M.P.E.C. 2005-F06                                Issued 2005 Mar. 16, 13:18 UT

     The Minor Planet Electronic Circulars contain information on unusual
         minor planets and routine data on comets.  They are published
   on behalf of Commission 20 of the International Astronomical Union by the
          Minor Planet Center, Smithsonian Astrophysical Observatory,
                          Cambridge, MA 02138, U.S.A.

                  Supported in part by the Brinson Foundation
             Prepared using the Tamkin Foundation Computer Network

                              MPC@CFA.HARVARD.EDU
          URL http://cfa-www.harvard.edu/iau/mpc.html  ISSN 1523-6714

                                  2005 ED224

Observations:
     K05EM4D* C2005 03 13.26326 13 59 02.37 +29 15 05.8          18.9   EF006704
     K05EM4D  C2005 03 13.27457 13 58 47.61 +29 18 23.0          19.8   EF006704
     K05EM4D  C2005 03 13.28588 13 58 32.76 +29 21 39.3          19.6   EF006704
     K05EM4D  C2005 03 13.30967 13 58 01.81 +29 28 27.2          19.8   EF006704
     K05EM4D  C2005 03 14.35544 13 39 34.92 +33 20 53.0          19.6 R EF006854
     K05EM4D  C2005 03 14.36045 13 39 30.26 +33 21 44.8          19.7 R EF006854
     K05EM4D  C2005 03 14.36547 13 39 25.56 +33 22 37.9          19.8 R EF006854
     K05EM4D  C2005 03 16.36153 13 16 41.27 +37 25 53.5          21.7 R EF006G96
     K05EM4D  C2005 03 16.36929 13 16 36.85 +37 26 32.7          20.4 R EF006G96
     K05EM4D  C2005 03 16.37704 13 16 32.52 +37 27 12.0          20.6 R EF006G96
     K05EM4D  C2005 03 16.38477 13 16 28.18 +37 27 50.2          20.4 R EF006G96

Observer details:
704 Lincoln Laboratory ETS, New Mexico.  Observers M. Blythe, F. Shelly,
    M. Bezpalko, R. Huber, L. Manguso, D. Torres, R. Kracke, M. McCleary,
    H. Stange, A. Milner.  Measurers J. Stuart, R. Sayer, J. Evans, J. Kommers.
    1.0-m f/2.15 reflector + CCD.
854 Sabino Canyon Observatory, Tucson.  Observer J. E. McGaha.  0.36-m f/10.0
    Schmidt-Cassegrain + CCD.
G96 Mt. Lemmon Survey.  Observer E. C. Beshore.  Measurers E. C. Beshore,
    C. M. Casey, E. J. Christensen, G. J. Garradd, R. E. Hill, S. M. Larson,
    R. H. McNaught.  1.5-m reflector + CCD.

Orbital elements:
2005 ED224
Epoch 2005 Mar. 11.0 TT = JDT 2453440.5                 MPC
M  18.74407              (2000.0)            P               Q
n   0.38640929     Peri.  277.02826     +0.01871931     -0.99609046
a   1.8668282      Node   170.51031     +0.99038508     +0.03031076
e   0.6513493      Incl.   31.57690     -0.13706561     +0.08297626
P   2.55           H   24.3           G   0.15
From 11 observations 2005 Mar. 13-16.

Ephemeris:
2005 ED224               a,e,i = 1.87, 0.65, 32                  q = 0.6509
Date    TT    R. A. (2000) Decl.     Delta      r     Elong.  Phase     V
2005 03 11    15 14.70   +08 03.9    0.0313   1.011   122.7    55.8    18.8
2005 03 12    14 32.82   +20 43.5    0.0409   1.021   132.0    46.3    19.2
2005 03 13    14 04.75   +27 55.0    0.0524   1.032   135.9    42.0    19.6
2005 03 14    13 45.13   +32 13.6    0.0649   1.043   137.6    40.0    20.0
2005 03 15    13 30.82   +35 00.0    0.0779   1.054   138.3    38.9    20.4
2005 03 16    13 19.98   +36 53.4    0.0911   1.065   138.4    38.3    20.8
2005 03 17    13 11.50   +38 14.3    0.105    1.075   138.4    37.9    21.1
2005 03 18    13 04.70   +39 14.1    0.118    1.086   138.2    37.6    21.4
2005 03 19    12 59.12   +39 59.3    0.132    1.097   138.0    37.4    21.6
2005 03 20    12 54.47   +40 34.1    0.146    1.108   137.7    37.3    21.8
2005 03 21    12 50.53   +41 01.2    0.160    1.119   137.3    37.1    22.1

Timothy B. Spahr             (C) Copyright 2005 MPC           M.P.E.C. 2005-F06

Read MPEC 2005-F05 Read MPEC 2005-F07


Our Web policy. Index to the CBAT/MPC/ICQ pages.


Valid HTML 4.01!